Location: ??????????
(54.8537°N, 38.8755°E)
Time: 00:43:07
(UTC+00:00)

Tiros 1 - Pass Details

Date: 18 September 2024
Orbit: 623 x 654 km, 48.4° (Epoch: 15 October)

Event Time Altitude Azimuth Distance (km) Brightness Sun altitude
Rises 12:41:48 0° 226° (SW) 2,892 11.9 22.7°
Reaches altitude 10° 12:44:23 10° 214° (SSW) 1,988 11.0 22.4°
Maximum altitude 12:48:09 26° 158° (SSE) 1,247 8.9 21.9°
Drops below altitude 10° 12:51:56 10° 103° (ESE) 2,001 9.3 21.4°
Sets 12:54:32 0° 90° (E) 2,914 10.0 21.1°
